[[{"header":{"parameterUnit":"m.s-1","parameterCategory":1,"la1":30.2991,"la2":30.254,"lo1":-89.0895,"lo2":-89.0444,"dy":0.0017,"dx":0.0017,"nx":28,"ny":28,"refTime":"2024-09-02T09:00:00:Z","depth":0,"parameterNumber":2,"parameterNumberName":"U-component_of_WINDS"},"data":[0,0,0,0,0,0,0,0,0,0,0,0,0,0,0,0,0,0,0,0,0,0,0,0,0,0,0,0,0,0,0,0,0,0,0,0,0,0,0,0,0,0,0,0,0,0,0,0,0,0,0,0,0,0,0,0,0,0,-6.3688,-6.3691,0,-6.3935,-6.3938,-6.3941,-6.3866,-6.3861,-6.3856,-6.3851,-6.4101,-6.4112,-6.4123,0,0,0,0,0,0,0,0,0,0,0,0,0,-6.3148,-6.3158,-6.3688,-6.3691,-6.3694,-6.3935,-6.3938,-6.3941,-6.3867,-6.3861,-6.3854,-6.3848,-6.4097,-6.411,-6.4124,0,0,0,0,0,0,0,0,0,0,0,0,0,-6.3387,-6.3162,-6.3687,-6.3686,-6.3688,-6.3934,-6.3938,-6.3942,-6.3868,-6.386,-6.3853,-6.3845,-6.4092,-6.4109,-6.4126,-6.4387,0,0,-6.4179,-6.4186,0,0,0,0,0,0,0,0,-6.3374,-6.3407,-6.3683,-6.3687,-6.369,-6.3862,-6.3839,-6.4091,-6.387,-6.38,-6.3851,-6.3842,-6.4027,-6.4049,-6.4112,-6.4399,-6.4409,-6.418,-6.419,-6.4198,-6.4203,0,0,0,0,0,0,0,-6.3357,-6.3396,-6.3785,-6.3687,-6.3691,-6.3672,-6.3697,-6.3887,-6.3954,-6.3805,-6.3801,-6.3831,-6.4027,-6.4096,-6.4118,-6.4413,-6.418,-6.4195,-6.4205,-6.4212,-6.4925,-6.4934,0,0,0,0,0,0,-6.3339,-6.3383,-6.3778,-6.3793,-6.351,-6.3688,-6.3716,-6.3814,-6.3952,-6.3965,-6.3837,-6.3827,-6.4071,-6.4098,-6.4126,-6.4442,-6.4198,-6.4214,-6.4224,-6.4917,-6.4927,-6.4937,0,0,0,0,0,0,-6.3328,-6.3375,-6.3768,-6.3587,-6.3635,-6.3705,-6.3816,-6.3823,-6.3892,-6.3976,-6.3987,-6.3896,-6.4065,-6.4102,-6.4323,-6.4449,-6.4222,-6.4237,-6.4907,-6.492,-6.4932,-6.5074,0,0,0,0,0,0,-6.3313,-6.3371,-6.3472,-6.359,-6.3645,-6.3962,-6.3824,-6.3834,-6.3922,-6.391,-6.4033,-6.4046,-6.4062,-6.4298,-6.434,-6.4469,-6.4251,-6.4896,-6.4913,-6.4928,-6.5058,-6.509,-6.5117,0,0,0,0,0,-6.3294,-6.3502,-6.3478,-6.3526,-6.3773,-6.3969,-6.4001,-6.4016,-6.3933,-6.4034,-6.4088,-6.4042,-6.4428,-6.4321,-6.4368,-6.4504,-6.4888,-6.4908,-6.4927,-6.5045,-6.5084,-6.5117,0,0,0,0,0,0,-6.3397,-6.3517,-6.3492,-6.3745,-6.3848,-6.3956,-6.4085,-6.4057,-6.4185,-6.4168,-6.418,-6.4209,-6.4436,-6.4491,-6.437,-6.4763,-6.4645,-6.4675,-6.4719,-6.4757,-6.4786,-6.4768,-6.4265,0,0,0,0,0,-6.3449,-6.3599,-6.3696,-6.3909,-6.3962,-6.4015,-6.4101,-6.4104,-6.421,-6.4253,-6.4323,-6.4427,-6.4572,-6.4667,-6.4805,-6.5065,-6.5091,-6.5181,-6.5211,-6.5235,-6.5261,-6.5403,-6.5444,-6.5001,-6.5,-6.5,0,0,-6.3558,-6.3642,-6.3737,-6.3932,-6.4012,-6.4167,-6.4052,-6.422,-6.4335,-6.4278,-6.4492,-6.4547,-6.4664,-6.4906,-6.5016,-6.4959,-6.5389,-6.5259,-6.5278,-6.5291,-6.5427,-6.5469,-6.5506,-6.5014,-6.5011,-6.5009,0,0,-6.3837,-6.3916,-6.4102,-6.4185,-6.4308,-6.4341,-6.4386,-6.45,-6.4535,-6.4749,-6.471,-6.4845,-6.5094,-6.5179,-6.5255,-6.5565,-6.5528,-6.5609,-6.5764,-6.5902,-6.5937,-6.5969,-6.608,-6.612,-6.5635,-6.5635,-6.5635,0,-6.3957,-6.419,-6.4202,-6.4374,-6.4461,-6.4417,-6.4606,-6.4685,-6.4846,-6.4907,-6.4841,-6.5153,-6.5228,-6.549,-6.5565,-6.5628,-6.5679,-6.5596,-6.5932,-6.5963,-6.5992,-6.6098,-6.614,-6.5644,-6.5643,-6.5642,-6.5641,0,-6.4332,-6.4493,-6.4629,-6.4788,-6.4889,-6.5069,-6.5107,-6.5209,-6.5202,-6.5242,-6.5461,-6.555,-6.5705,-6.5766,-6.5761,-6.6028,-6.5989,-6.5928,-6.581,-6.6043,-6.6144,-6.6184,-6.5657,-6.5654,-6.5651,-6.5649,0,0,-6.4684,-6.4846,-6.4896,-6.4967,-6.5099,-6.5224,-6.54,-6.5553,-6.564,-6.5752,-6.5901,-6.6112,-6.6056,-6.6142,-6.6146,-6.6267,-6.6508,-6.6191,-6.6194,-6.6248,-6.6807,-6.6854,-6.6901,-6.6483,-6.6491,-6.6497,-6.6798,0,-6.4974,-6.5288,-6.5303,-6.5587,-6.5737,-6.5697,-6.585,-6.5948,-6.5989,-6.6121,-6.6166,-6.6317,-6.6231,-6.6283,-6.6401,-6.6454,-6.6621,-6.6432,-6.6622,-6.6628,-6.6596,-6.6953,-6.7003,-6.7283,-6.6837,-6.6844,-6.6849,0,-6.5356,-6.5481,-6.5781,-6.5891,-6.5955,-6.6093,-6.6234,-6.6361,-6.6469,-6.6491,-6.6587,-6.6574,-6.6754,-6.6628,-6.6877,-6.6748,-6.6826,-6.6864,-6.6875,-6.6894,-6.6754,-6.6983,-6.7372,-6.7414,-6.691,-6.6905,-6.6901,0,-6.5584,-6.5827,-6.6038,-6.61,-6.6234,-6.6332,-6.6392,-6.6493,-6.6584,-6.6706,-6.6765,-6.6907,-6.6985,-6.7094,-6.7118,-6.7025,-6.7367,-6.7244,-6.739,-6.739,-6.7465,-6.7461,-6.7873,-6.7514,-6.7513,-6.7512,-6.7512,0,-6.5908,-6.6093,-6.6143,-6.6273,-6.6478,-6.6493,-6.6696,-6.6749,-6.6839,-6.6978,-6.695,-6.7081,-6.7104,-6.724,-6.7259,-6.7462,-6.7497,-6.752,-6.7523,-6.7523,-6.7521,-6.7576,-6.7557,-6.7524,-6.7521,-6.7519,-6.7517,0,-6.6199,-6.6239,-6.6466,-6.6575,-6.6606,-6.6753,-6.6845,-6.6969,-6.7006,-6.7182,-6.7224,-6.7284,-6.7442,-6.7477,-6.7664,-6.7677,-6.7918,-6.7902,-6.7882,-6.7881,-6.8026,-6.8013,-6.849,-6.8553,-6.8151,-6.8155,-6.8158,0,-6.6404,-6.6545,-6.6669,-6.676,-6.6825,-6.6973,-6.7065,-6.7084,-6.7182,-6.7316,-6.7424,-6.7579,-6.7704,-6.7958,-6.8017,-6.816,-6.8147,-6.8305,-6.8169,-6.8165,-6.8151,-6.8143,-6.8157,-6.8331,-6.8336,-6.8339,-6.8342,0,-6.6763,-6.6776,-6.6911,-6.7054,-6.7165,-6.7278,-6.7386,-6.7462,-6.7495,-6.7606,-6.7768,-6.7865,-6.8056,-6.821,-6.8353,-6.8413,-6.8385,-6.8384,-6.8426,-6.8428,-6.8411,-6.8423,-6.7955,-6.8373,-6.837,-6.8368,-6.8366,-6.8365,-6.7018,-6.7142,-6.7248,-6.74,-6.7482,-6.7584,-6.7706,-6.7759,-6.7894,-6.8052,-6.8055,-6.8231,-6.8335,-6.8525,-6.8594,-6.8731,-6.8682,-6.8742,-6.8758,-6.8773,-6.8787,-6.8388,-6.8757,-6.8756,-6.8756,-6.8755,-6.8754,0,-6.7377,-6.7443,-6.7582,-6.7734,-6.7853,-6.7814,-6.7931,-6.8033,-6.8189,-6.8289,-6.8413,-6.8598,-6.8747,-6.8819,-6.8966,-6.9062,-6.9053,-6.91,-6.9094,-6.9109,-6.8822,-6.8771,-6.9106,-6.9106,-6.9106,-6.9106,-6.9106,-6.9106,-6.7578,-6.7786,-6.7811,-6.8059,-6.8124,-6.8297,-6.8367,-6.846,-6.854,-6.8749,-6.8873,-6.8918,-6.9007,-6.916,-6.9295,-6.9312,-6.9368,-6.9423,-6.9434,-6.9164,-6.9129,-6.9095,-6.9048,-6.9435,-6.9435,-6.9709,-6.9712,-6.9714]},{"header":{"parameterUnit":"m.s-1","parameterCategory":1,"la1":30.2991,"la2":30.254,"lo1":-89.0895,"lo2":-89.0444,"dy":0.0017,"dx":0.0017,"nx":28,"ny":28,"refTime":"2024-09-02T09:00:00:Z","depth":0,"parameterNumber":3,"parameterNumberName":"V-component_of_WINDS"},"data":[0,0,0,0,0,0,0,0,0,0,0,0,0,0,0,0,0,0,0,0,0,0,0,0,0,0,0,0,0,0,0,0,0,0,0,0,0,0,0,0,0,0,0,0,0,0,0,0,0,0,0,0,0,0,0,0,0,0,-1.5961,-1.5961,0,-1.5934,-1.5934,-1.5934,-1.5923,-1.5923,-1.5923,-1.5923,-1.5896,-1.5895,-1.5894,0,0,0,0,0,0,0,0,0,0,0,0,0,-1.6004,-1.6004,-1.5961,-1.5961,-1.5961,-1.5934,-1.5934,-1.5933,-1.5923,-1.5923,-1.5923,-1.5923,-1.5896,-1.5895,-1.5894,0,0,0,0,0,0,0,0,0,0,0,0,0,-1.5982,-1.6003,-1.5962,-1.5952,-1.5951,-1.5934,-1.5934,-1.5933,-1.5923,-1.5923,-1.5923,-1.5924,-1.5896,-1.5895,-1.5894,-1.5884,0,0,-1.589,-1.5889,0,0,0,0,0,0,0,0,-1.5983,-1.5981,-1.5954,-1.5953,-1.5952,-1.5932,-1.5939,-1.5917,-1.5923,-1.5934,-1.5923,-1.5924,-1.5908,-1.5905,-1.59,-1.5882,-1.5881,-1.589,-1.5889,-1.5889,-1.5888,0,0,0,0,0,0,0,-1.5985,-1.5982,-1.5951,-1.5954,-1.5952,-1.595,-1.5947,-1.5934,-1.592,-1.5933,-1.5932,-1.5929,-1.5907,-1.5901,-1.5899,-1.5881,-1.589,-1.5889,-1.5888,-1.5888,-1.5853,-1.5853,0,0,0,0,0,0,-1.5988,-1.5983,-1.5952,-1.595,-1.5968,-1.5949,-1.5945,-1.5938,-1.592,-1.5918,-1.5929,-1.5929,-1.5903,-1.5901,-1.5898,-1.5885,-1.5889,-1.5887,-1.5887,-1.5853,-1.5853,-1.5852,0,0,0,0,0,0,-1.5989,-1.5985,-1.5953,-1.5966,-1.5962,-1.5948,-1.594,-1.5938,-1.5932,-1.5917,-1.5915,-1.5926,-1.5903,-1.59,-1.5887,-1.5884,-1.5887,-1.5886,-1.5853,-1.5853,-1.5853,-1.5858,0,0,0,0,0,0,-1.599,-1.5986,-1.5982,-1.5966,-1.5961,-1.5942,-1.594,-1.5937,-1.593,-1.5929,-1.5914,-1.5911,-1.5903,-1.5889,-1.5886,-1.5882,-1.5885,-1.5853,-1.5853,-1.5853,-1.5858,-1.5858,-1.5858,0,0,0,0,0,-1.5992,-1.5985,-1.5982,-1.5978,-1.5956,-1.5942,-1.5939,-1.593,-1.593,-1.5926,-1.5916,-1.5912,-1.5885,-1.5888,-1.5884,-1.588,-1.5854,-1.5853,-1.5853,-1.5858,-1.5858,-1.5858,0,0,0,0,0,0,-1.6001,-1.5983,-1.5979,-1.5967,-1.5956,-1.594,-1.5935,-1.593,-1.5919,-1.5919,-1.5908,-1.5905,-1.5892,-1.5885,-1.5889,-1.5869,-1.5869,-1.5868,-1.5874,-1.5874,-1.5874,-1.5876,-1.5884,0,0,0,0,0,-1.6001,-1.5991,-1.5976,-1.5966,-1.5961,-1.5949,-1.5942,-1.5936,-1.5925,-1.592,-1.591,-1.5899,-1.5887,-1.588,-1.5869,-1.5857,-1.5853,-1.5852,-1.5852,-1.5852,-1.5851,-1.5844,-1.5843,-1.5851,-1.5851,-1.5851,0,0,-1.6002,-1.5991,-1.5985,-1.5968,-1.5959,-1.5949,-1.5945,-1.5935,-1.5927,-1.5918,-1.5905,-1.5897,-1.5884,-1.5872,-1.5865,-1.5865,-1.5848,-1.5852,-1.5852,-1.5851,-1.5843,-1.5842,-1.5842,-1.5851,-1.5851,-1.5851,0,0,-1.5998,-1.5989,-1.598,-1.5971,-1.5957,-1.5949,-1.5946,-1.5931,-1.5926,-1.5912,-1.5906,-1.5896,-1.5878,-1.5868,-1.5861,-1.5853,-1.5849,-1.585,-1.5849,-1.5842,-1.5841,-1.5841,-1.5837,-1.5836,-1.5849,-1.5849,-1.5849,0,-1.6001,-1.5986,-1.5976,-1.5965,-1.5958,-1.5949,-1.594,-1.5931,-1.5915,-1.5909,-1.5909,-1.5885,-1.5876,-1.586,-1.5858,-1.5853,-1.585,-1.5852,-1.5842,-1.5842,-1.5841,-1.5837,-1.5836,-1.5849,-1.5849,-1.5849,-1.5849,0,-1.5989,-1.5979,-1.5973,-1.5957,-1.5948,-1.5938,-1.5927,-1.592,-1.5914,-1.5906,-1.5892,-1.5881,-1.5867,-1.5863,-1.5857,-1.5846,-1.5846,-1.5844,-1.5844,-1.584,-1.5837,-1.5836,-1.585,-1.585,-1.585,-1.585,0,0,-1.5991,-1.5969,-1.5967,-1.5959,-1.5943,-1.5934,-1.5924,-1.591,-1.5904,-1.5893,-1.5883,-1.5867,-1.5865,-1.5857,-1.585,-1.5844,-1.5838,-1.5842,-1.5842,-1.5842,-1.5824,-1.5826,-1.5824,-1.5835,-1.5834,-1.5834,-1.5825,0,-1.5985,-1.5965,-1.5956,-1.5941,-1.593,-1.5922,-1.5913,-1.5902,-1.5893,-1.5883,-1.5874,-1.5863,-1.5861,-1.5856,-1.585,-1.584,-1.5834,-1.5841,-1.5826,-1.5825,-1.5829,-1.5823,-1.5824,-1.5816,-1.5824,-1.5824,-1.5824,0,-1.5975,-1.5963,-1.5947,-1.5931,-1.5926,-1.5918,-1.5905,-1.5895,-1.5882,-1.5877,-1.5867,-1.5861,-1.5849,-1.585,-1.5833,-1.5838,-1.5831,-1.5826,-1.5825,-1.5823,-1.5824,-1.582,-1.5813,-1.5812,-1.5821,-1.5822,-1.5822,0,-1.5977,-1.5957,-1.5944,-1.5938,-1.592,-1.5914,-1.5906,-1.5893,-1.5886,-1.5874,-1.5868,-1.5855,-1.5848,-1.5838,-1.5828,-1.583,-1.5813,-1.5813,-1.5808,-1.5808,-1.5804,-1.5804,-1.5796,-1.5801,-1.5801,-1.5801,-1.5801,0,-1.5971,-1.5961,-1.5945,-1.5937,-1.5926,-1.5915,-1.5904,-1.5895,-1.5884,-1.5874,-1.5866,-1.5857,-1.5845,-1.5834,-1.5827,-1.5814,-1.5811,-1.5806,-1.5804,-1.5806,-1.5807,-1.5801,-1.5802,-1.58,-1.58,-1.5801,-1.5801,0,-1.5971,-1.596,-1.5945,-1.5929,-1.5925,-1.5917,-1.5903,-1.5895,-1.5886,-1.5874,-1.587,-1.5857,-1.5844,-1.5833,-1.5816,-1.5811,-1.5797,-1.5795,-1.5802,-1.58,-1.5796,-1.5796,-1.5783,-1.5781,-1.5788,-1.5788,-1.5787,0,-1.5968,-1.596,-1.5942,-1.5935,-1.5927,-1.5916,-1.5907,-1.5896,-1.5888,-1.5872,-1.5866,-1.5853,-1.5841,-1.5821,-1.5809,-1.5796,-1.5793,-1.579,-1.5791,-1.5794,-1.5793,-1.5793,-1.5792,-1.579,-1.579,-1.579,-1.579,0,-1.5963,-1.5957,-1.5946,-1.5932,-1.5922,-1.5911,-1.5899,-1.5894,-1.5881,-1.5872,-1.5858,-1.5849,-1.5832,-1.5818,-1.5804,-1.5796,-1.579,-1.5789,-1.5787,-1.5789,-1.5793,-1.579,-1.5801,-1.5789,-1.5789,-1.5789,-1.5789,-1.5789,-1.5961,-1.5953,-1.5939,-1.5926,-1.5916,-1.5905,-1.5897,-1.5887,-1.5875,-1.586,-1.5854,-1.584,-1.5827,-1.5807,-1.5799,-1.5787,-1.5787,-1.5784,-1.5783,-1.5783,-1.5783,-1.5795,-1.5785,-1.5785,-1.5785,-1.5785,-1.5785,0,-1.5955,-1.5945,-1.5933,-1.5917,-1.5907,-1.5903,-1.5889,-1.5881,-1.5869,-1.5857,-1.5845,-1.583,-1.5816,-1.5804,-1.579,-1.5783,-1.578,-1.578,-1.578,-1.5778,-1.5784,-1.5787,-1.5782,-1.5782,-1.5782,-1.5782,-1.5782,-1.5782,-1.595,-1.5937,-1.593,-1.5911,-1.5902,-1.5888,-1.588,-1.587,-1.586,-1.5843,-1.5832,-1.5823,-1.5811,-1.5796,-1.5783,-1.578,-1.5775,-1.5775,-1.5771,-1.5777,-1.5777,-1.5778,-1.578,-1.5774,-1.5774,-1.5765,-1.5765,-1.5765]}]]